Location: Newark
(46.3167°N, 0.4667°W)
Time: 03:58:06
(UTC+00:00)

Envisat - Visible Passes

Search period start: 16 September 2019 00:00
Search period end: 26 September 2019 00:00
Orbit: 764 x 766 km, 98.1° (Epoch: 15 September)

Date Brightness Start Highest point End Pass type
(mag) Time Alt. Az. Time Alt. Az. Time Alt. Az.
16 Sep 4.1 18:33:35 10° S 18:38:32 51° W 18:43:30 10° NNW visible
17 Sep 6.0 19:38:32 10° WSW 19:41:20 15° W 19:44:09 10° NW visible
18 Sep 5.1 18:59:43 10° SSW 19:04:10 31° W 19:08:40 10° NNW visible
20 Sep 5.9 19:26:27 10° SW 19:29:56 18° W 19:33:26 10° NW visible
21 Sep 4.7 18:48:08 10° SSW 18:52:50 38° W 18:57:35 10° NNW visible
22 Sep 6.4 19:54:54 10° W 19:55:48 10° W 19:56:41 10° WNW visible
23 Sep 5.6 19:14:35 10° SW 19:18:33 23° W 19:22:34 10° NW visible
24 Sep 4.2 18:36:39 10° S 18:41:32 47° W 18:46:27 10° NNW visible
25 Sep 6.1 19:41:56 10° WSW 19:44:22 13° W 19:46:50 10° WNW visible
